Regional Weather Roundup
Issued by NWS Green Bay, WI

Home | Current Version | Previous Version | Graphics & Text | Print | Product List | Glossary Off
Versions: 1 2 3 4 5 6 7 8 9 10 11 12 13 14 15 16 17 18 19 20 21 22 23 24 25 26 27 28 29 30 31 32 33 34 35 36 37 38 39 40 41 42 43 44 45 46 47 48 49 50

000
ASUS43 KGRB 241810
RWRGRB

NORTH-CENTRAL AND NORTHEAST WISCONSIN REGIONAL WEATHER ROUNDUP
NATIONAL WEATHER SERVICE GREEN BAY WI
100 PM CDT THU JUL 24 2014

WIZ005-009-010>012-018-019-241900-
NORTH CENTRAL WISCONSIN

CITY           SKY/WX    TMP DP  RH WIND       PRES   REMARKS
IRONWOOD       NOT AVBL
MANITOWISH WTR PTSUNNY   70  51  50 W5        30.12F
ARBOR VITAE    MOSUNNY   77  53  42 NW5       30.13F
EAGLE RIVER    PTSUNNY   71  46  40 W6        30.13F
LAND O LAKES   MOSUNNY   71  46  40 CALM      30.13F
RHINELANDER    MOSUNNY   70  48  45 VRB5      30.14F
PHILLIPS       MOSUNNY   73  50  45 CALM      30.12F
ANTIGO         MOSUNNY   70  51  50 CALM      30.15F
TOMAHAWK       PTSUNNY   70  51  50 CALM      30.13F
MERRILL        MOSUNNY   73  51  46 NW5       30.13F
$$

WIZ013-073-241900-
NORTHEAST WISCONSIN

CITY           SKY/WX    TMP DP  RH WIND       PRES   REMARKS
IRON MOUNTAIN  MOSUNNY   73  47  39 VRB6      30.12F
MARINETTE      MOSUNNY   72  48  43 S9        30.12F
OCONTO         SUNNY     72  48  42 S9        30.14F
$$

WIZ017-030-035>037-045-241900-
CENTRAL WISCONSIN

CITY           SKY/WX    TMP DP  RH WIND       PRES   REMARKS
MEDFORD        MOSUNNY   72  51  47 CALM      30.13F
WAUSAU         PTSUNNY   74  49  41 NW5       30.12F
MOSINEE        MOSUNNY   72  46  40 W7        30.15F
MARSHFIELD     PTSUNNY   75  50  41 MISG      30.13F
WISC RAPIDS    PTSUNNY   77  50  38 VRB7      30.15F
STEVENS POINT  MOSUNNY   71  47  43 W5        30.14F
WAUPACA        MOSUNNY   77  49  36 E3        30.15F
SHAWANO        PTSUNNY   74  49  40 NW6       30.14F
CLINTONVILLE   MOSUNNY   73  50  43 CALM      30.14F
$$

WIZ038-039-048-051-241900-
FOX VALLEY

CITY           SKY/WX    TMP DP  RH WIND       PRES   REMARKS
NWS GREEN BAY  MOSUNNY   74  50  42 VRB5      30.14F
APPLETON       PTSUNNY   72  50  46 VRB6      30.16F
OSHKOSH        MOSUNNY   73  51  46 SE9       30.15F
FOND DU LAC    MOSUNNY   74  51  44 CALM      30.16F
$$

WIZ022-050-052-241900-
EAST CENTRAL WISCONSIN

CITY           SKY/WX    TMP DP  RH WIND       PRES   REMARKS
STURGEON BAY   MOSUNNY   70  46  43 CALM      30.16F
MANITOWOC      SUNNY     67  45  45 SE10      30.17F
SHEBOYGAN      SUNNY     70  46  42 MISG      30.17F
$$

LMZ563-521-522-541>543-241900-
LAKESHORE

STATION/POSITION TIME  TEMP    WIND        PRES    VSBY  WAVE
                       AIR SEA DIR/SP/G                  HT/PER
                 (UTC) (F)     (DEG/KT/KT) (MB)    (MI)  (FT/S)
SHEBOYGAN LKSHOR 1800   60     130/  5/  5 1022.2F
KEWAUNEE LKSHORE 1800   58     180/  7/  8 1022.1F
NORTHPORT PIER   1800   65     140/ 10/ 11 1020.7S
N MID LAKE BUOY  1800   59 57  210/  8/  8 1020.2F         0
STURGEON BAY CG  1800   58 50  180/  9     1021.2      6   1
CHAMBERS ISLAND  1800   69     130/  5/ 10 1020.7F
MENOMINEE LKSHOR 1800   66     160/ 10/ 12 1021.2F
$$



USA.gov is the U.S. government's official web portal to all federal, state and local government web resources and services.